DW3241 Weather Reports


Display with metric or nautical units.
time (UTC)temp
F
wind
direction
speed
MPH
gust
MPH
rain 1hr
in
rain 24hr
in
rain mn
in
humidity
%
barometer
mb
20200410080528 33 267 4.0 8.0 0.00 0.00 0.00 83 1011.3
20200410080342 33 255 3.0 7.0 0.00 0.00 0.00 83 1011.3
20200410075505 33 252 3.0 8.0 0.00 0.00 0.00 83 1011.2
20200410075016 33 289 3.0 7.0 0.00 0.00 0.00 83 1011.2
20200410074542 33 306 4.0 9.0 0.00 0.00 0.00 83 1011.1
20200410074012 33 268 4.0 9.0 0.00 0.00 0.00 82 1011.1
20200410073548 33 260 4.0 8.0 0.00 0.00 0.00 83 1011.1
20200410073044 33 261 4.0 9.0 0.00 0.00 0.00 82 1011.0
20200410072512 33 290 3.0 9.0 0.00 0.00 0.00 82 1011.0
20200410072052 33 266 2.0 9.0 0.00 0.00 0.00 82 1010.9
20200410071522 33 261 5.0 9.0 0.00 0.00 0.00 82 1010.9
20200410071029 33 244 4.0 9.0 0.00 0.00 0.00 82 1010.8
20200410070519 33 252 3.0 9.0 0.00 0.00 0.00 82 1010.8
20200410070032 34 259 5.0 9.0 0.00 0.00 0.00 81 1010.8
20200410065527 34 274 2.0 9.0 0.00 0.00 0.00 82 1010.8
20200410065019 34 257 4.0 9.0 0.00 0.00 0.00 81 1010.8
20200410064528 34 285 4.0 8.0 0.00 0.00 0.00 80 1010.7
20200410064022 34 297 4.0 8.0 0.00 0.00 0.00 80 1010.7
20200410063512 34 300 3.0 8.0 0.00 0.00 0.00 80 1010.6
20200410063030 34 286 3.0 8.0 0.00 0.00 0.00 81 1010.5
20200410062505 34 273 3.0 7.0 0.00 0.00 0.00 81 1010.4
20200410062019 34 311 3.0 6.0 0.00 0.00 0.00 81 1010.4
20200410061528 34 291 4.0 11.0 0.00 0.00 0.00 82 1010.3
20200410061019 34 333 5.0 11.0 0.00 0.00 0.00 82 1010.3
20200410060531 34 291 3.0 9.0 0.00 0.00 0.00 83 1010.2
20200410060030 34 287 4.0 9.0 0.00 0.00 0.00 83 1010.2
20200410055518 34 331 6.0 9.0 0.00 0.00 0.00 83 1010.1
20200410055058 34 311 5.0 8.0 0.00 0.00 0.00 83 1010.1
20200410055014 34 311 5.0 8.0 0.00 0.00 0.00 83 1010.1
20200410054506 34 238 6.0 10.0 0.00 0.00 0.00 83 1010.1
20200410054023 34 285 6.0 10.0 0.00 0.00 0.00 82 1010.1
20200410053513 34 275 6.0 10.0 0.00 0.00 0.00 83 1010.1
20200410053050 34 304 5.0 11.0 0.00 0.00 0.00 83 1010.0
20200410052528 34 276 6.0 11.0 0.00 0.00 0.00 82 1010.0
20200410052009 34 279 3.0 9.0 0.00 0.00 0.00 82 1009.9
20200410051527 35 259 4.0 9.0 0.00 0.00 0.00 83 1009.7
20200410051038 34 286 4.0 9.0 0.00 0.00 0.00 83 1009.7
20200410050506 34 317 5.0 8.0 0.00 0.00 0.00 83 1009.6
20200410050030 34 281 4.0 8.0 0.00 0.00 0.00 82 1009.6
20200410045524 34 243 4.0 7.0 0.00 0.00 0.00 83 1009.6
20200410045103 34 287 3.0 7.0 0.00 0.00 0.00 84 1009.6
20200410044530 34 288 5.0 7.0 0.00 0.00 0.00 84 1009.5
20200410044027 34 296 3.0 7.0 0.00 0.00 0.00 84 1009.5
20200410043520 34 300 4.0 8.0 0.00 0.00 0.00 84 1009.5
20200410043030 34 271 3.0 9.0 0.00 0.00 0.00 83 1009.4
20200410042520 34 291 4.0 9.0 0.00 0.00 0.00 83 1009.4
20200410042028 34 269 3.0 8.0 0.00 0.00 0.00 84 1009.3
20200410041524 34 285 2.0 7.0 0.00 0.00 0.00 83 1009.2
20200410041015 34 311 3.0 7.0 0.00 0.00 0.00 84 1009.2
20200410040506 34 281 4.0 8.0 0.00 0.00 0.00 84 1009.2
20200410040036 34 305 3.0 8.0 0.00 0.00 0.00 84 1009.2
20200410035506 34 291 4.0 6.0 0.00 0.00 0.00 84 1009.1
20200410035004 34 264 3.0 7.0 0.00 0.00 0.00 85 1009.1
20200410034509 34 303 4.0 9.0 0.00 0.00 0.00 85 1009.1
20200410034026 34 253 4.0 9.0 0.00 0.00 0.00 84 1009.1
20200410033519 34 264 3.0 7.0 0.00 0.00 0.00 84 1009.0
20200410033032 34 271 3.0 6.0 0.00 0.00 0.00 84 1009.0
20200410032528 34 258 3.0 7.0 0.00 0.00 0.00 84 1009.0
20200410032020 34 301 4.0 7.0 0.00 0.00 0.00 84 1009.0
20200410031509 34 274 4.0 6.0 0.00 0.00 0.00 84 1009.0
20200410031027 34 288 3.0 7.0 0.00 0.00 0.00 85 1009.1
20200410030519 34 314 2.0 5.0 0.00 0.00 0.00 85 1009.1
20200410030006 34 260 3.0 5.0 0.00 0.00 0.00 85 1009.1
20200410025524 34 281 3.0 5.0 0.00 0.00 0.00 85 1009.1
20200410025007 34 287 3.0 6.0 0.00 0.00 0.00 85 1009.1
20200410024526 34 307 4.0 7.0 0.00 0.00 0.00 85 1009.1
20200410024034 34 286 2.0 7.0 0.00 0.00 0.00 84 1009.0
20200410023550 34 245 2.0 6.0 0.00 0.00 0.00 84 1009.0
20200410023017 34 271 2.0 5.0 0.00 0.00 0.00 84 1009.0
20200410022505 34 283 2.0 5.0 0.00 0.00 0.00 84 1009.0
20200410022021 34 267 2.0 5.0 0.00 0.00 0.00 84 1008.9
20200410021510 34 269 1.0 5.0 0.00 0.00 0.00 84 1008.9
20200410021006 34 292 2.0 5.0 0.00 0.00 0.00 84 1008.8
20200410020528 34 278 3.0 5.0 0.00 0.00 0.00 84 1008.7
20200410020016 35 255 2.0 6.0 0.00 0.00 0.00 84 1008.6
20200410015550 35 267 2.0 6.0 0.00 0.00 0.00 84 1008.5
20200410015004 35 288 3.0 6.0 0.00 0.00 0.00 84 1008.5
20200410014520 35 249 1.0 6.0 0.00 0.00 0.00 83 1008.5
20200410014007 35 272 2.0 5.0 0.00 0.00 0.00 84 1008.5
20200410013505 35 261 2.0 6.0 0.00 0.00 0.00 83 1008.5
20200410013024 35 259 2.0 6.0 0.00 0.00 0.00 84 1008.5
20200410012512 35 296 1.0 9.0 0.00 0.00 0.00 83 1008.4
20200410012050 35 265 5.0 9.0 0.00 0.00 0.00 83 1008.4
20200410011520 36 262 4.0 11.0 0.00 0.00 0.00 82 1008.3
20200410011029 36 232 3.0 12.0 0.00 0.00 0.00 81 1008.4
20200410010526 36 240 5.0 14.0 0.00 0.00 0.00 81 1008.4
20200410010019 36 261 6.0 14.0 0.00 0.00 0.00 80 1008.4
20200410005507 37 300 6.0 14.0 0.00 0.00 0.00 79 1008.4
20200410005005 37 296 9.0 16.0 0.00 0.03 0.00 76 1008.2
20200410004610 39 286 9.0 16.0 0.00 0.03 0.00 72 1008.1
20200410004036 40 327 9.0 14.0 0.00 0.03 0.00 62 1008.0
20200410003528 40 281 7.0 14.0 0.00 0.03 0.00 61 1007.7
20200410003017 40 317 2.0 7.0 0.00 0.03 0.00 68 1007.4
20200410002506 40 276 2.0 8.0 0.00 0.03 0.00 67 1007.4
20200410002021 40 248 3.0 8.0 0.00 0.03 0.00 67 1007.3
20200410001528 40 263 3.0 8.0 0.00 0.03 0.00 66 1007.3
20200410001015 40 277 2.0 10.0 0.00 0.03 0.00 66 1007.2
20200410000526 40 275 5.0 10.0 0.00 0.03 0.00 64 1007.2
20200410000015 41 236 5.0 11.0 0.00 0.03 0.00 63 1007.1
20200409235508 41 254 5.0 11.0 0.00 0.03 0.00 63 1007.2
20200409235013 42 302 8.0 16.0 0.00 0.03 0.00 56 1007.3
20200409234550 42 304 6.0 16.0 0.00 0.03 0.00 55 1007.3
20200409234110 42 5 6.0 13.0 0.00 0.03 0.00 55 1007.2
20200409234028 42 5 6.0 13.0 0.00 0.03 0.00 55 1007.2
20200409233519 42 300 3.0 9.0 0.00 0.03 0.00 57 1007.3
20200409233032 42 286 4.0 9.0 0.00 0.03 0.00 59 1007.2
20200409232507 41 283 3.0 10.0 0.00 0.03 0.00 61 1007.2
20200409232025 41 290 4.0 13.0 0.00 0.03 0.00 57 1007.1
20200409231522 41 249 6.0 14.0 0.00 0.03 0.00 58 1007.0
20200409231033 42 273 9.0 16.0 0.00 0.03 0.00 56 1006.9
20200409230549 42 273 7.0 20.0 0.00 0.03 0.00 54 1006.8
20200409230020 43 299 10.0 20.0 0.00 0.03 0.00 51 1006.7
20200409225006 44 5 7.0 15.0 0.00 0.03 0.00 44 1006.5
20200409224524 44 328 8.0 15.0 0.00 0.03 0.00 45 1006.4
20200409224007 44 322 3.0 13.0 0.00 0.03 0.00 49 1006.3
20200409223506 44 243 5.0 14.0 0.00 0.03 0.00 49 1006.4
20200409223024 44 280 6.0 14.0 0.00 0.03 0.00 50 1006.4
20200409222514 44 286 7.0 16.0 0.00 0.03 0.00 51 1006.4
20200409222048 44 294 8.0 16.0 0.00 0.03 0.00 50 1006.4
20200409221519 44 298 8.0 13.0 0.00 0.03 0.00 49 1006.4
20200409221009 44 297 6.0 13.0 0.00 0.03 0.00 48 1006.4
20200409220508 44 19 5.0 15.0 0.00 0.03 0.00 50 1006.5
20200409220028 44 331 6.0 17.0 0.00 0.03 0.00 47 1006.5
20200409215522 44 281 6.0 21.0 0.00 0.03 0.00 48 1006.4
20200409215037 44 301 9.0 21.0 0.00 0.03 0.00 50 1006.3
20200409214506 44 294 10.0 18.0 0.00 0.03 0.00 47 1006.3
20200409214021 44 331 7.0 17.0 0.00 0.03 0.00 47 1006.0
20200409213511 45 311 7.0 13.0 0.00 0.03 0.00 46 1006.0
20200409213048 45 269 5.0 13.0 0.00 0.03 0.00 46 1005.9
20200409212542 45 300 7.0 17.0 0.00 0.03 0.00 47 1005.8
20200409212029 45 305 7.0 17.0 0.00 0.03 0.00 46 1005.9
20200409211506 45 259 9.0 15.0 0.00 0.03 0.00 44 1005.8
20200409211004 45 318 8.0 15.0 0.00 0.03 0.00 45 1005.7
20200409210513 44 327 8.0 15.0 0.00 0.03 0.00 45 1005.8
20200409210013 45 304 7.0 17.0 0.00 0.03 0.00 47 1005.8
20200409205519 45 297 9.0 18.0 0.00 0.03 0.00 44 1006.0
20200409205010 45 300 7.0 16.0 0.00 0.03 0.00 45 1005.7
20200409204548 45 306 8.0 18.0 0.00 0.03 0.00 43 1005.7
20200409204019 46 334 9.0 18.0 0.00 0.03 0.00 43 1005.5
20200409203511 46 314 5.0 16.0 0.00 0.03 0.00 45 1005.6
20200409203051 46 304 8.0 16.0 0.00 0.03 0.00 45 1005.8
20200409202520 45 311 8.0 16.0 0.00 0.03 0.00 45 1005.6
20200409202029 46 328 8.0 16.0 0.00 0.03 0.00 46 1005.7
20200409201510 46 317 6.0 16.0 0.00 0.03 0.00 43 1005.7
20200409201048 47 345 8.0 16.0 0.00 0.03 0.00 43 1005.6
20200409200519 47 307 7.0 16.0 0.00 0.03 0.00 44 1005.7
20200409200032 47 286 9.0 17.0 0.00 0.03 0.00 43 1005.7
20200409195547 46 294 10.0 24.0 0.00 0.03 0.00 48 1005.8
20200409195038 45 288 8.0 24.0 0.00 0.03 0.00 48 1006.0
20200409194547 45 241 8.0 24.0 0.00 0.03 0.00 44 1005.9
20200409194020 47 248 14.0 24.0 0.00 0.03 0.00 41 1006.0
20200409193531 48 329 10.0 23.0 0.00 0.03 0.00 38 1005.8
20200409193050 48 279 8.0 23.0 0.00 0.03 0.00 41 1005.7
20200409192540 47 277 10.0 22.0 0.00 0.03 0.00 38 1005.6
20200409192030 47 304 9.0 22.0 0.00 0.03 0.00 40 1005.5
20200409191506 47 232 8.0 18.0 0.00 0.03 0.00 41 1005.6
20200409191020 48 294 11.0 19.0 0.00 0.03 0.00 39 1005.6
20200409190528 49 323 6.0 19.0 0.00 0.03 0.00 43 1005.5
20200409190107 50 288 10.0 19.0 0.00 0.03 0.00 42 1005.6
20200409190026 50 288 10.0 19.0 0.00 0.03 0.00 42 1005.6
20200409185532 48 22 8.0 21.0 0.00 0.03 0.00 44 1005.6
20200409185008 47 318 9.0 21.0 0.00 0.03 0.00 43 1005.7
20200409184635 48 276 6.0 21.0 0.00 0.03 0.00 45 1005.7
20200409184034 47 5 7.0 15.0 0.00 0.03 0.00 43 1005.6
20200409183551 48 273 6.0 15.0 0.00 0.03 0.00 46 1005.6
20200409183509 48 273 6.0 15.0 0.00 0.03 0.00 46 1005.6
20200409183006 48 316 6.0 14.0 0.00 0.03 0.00 44 1005.6
20200409182523 49 331 9.0 19.0 0.00 0.03 0.00 46 1005.5
20200409182009 49 304 7.0 19.0 0.00 0.03 0.00 43 1005.6
20200409181506 49 299 6.0 18.0 0.00 0.03 0.00 47 1005.4
20200409181004 49 355 10.0 18.0 0.00 0.03 0.00 45 1005.3
20200409180611 48 323 7.0 18.0 0.00 0.03 0.00 51 1005.3
20200409180529 48 323 7.0 18.0 0.00 0.03 0.00 51 1005.3
20200409180022 48 282 12.0 18.0 0.00 0.03 0.00 47 1005.4
20200409175533 48 304 8.0 16.0 0.00 0.03 0.00 46 1005.5
20200409175050 47 306 8.0 18.0 0.00 0.03 0.00 50 1005.6
20200409174521 47 330 10.0 18.0 0.00 0.03 0.00 44 1005.7
20200409174029 48 313 5.0 17.0 0.00 0.03 0.00 47 1005.6
20200409173506 49 304 8.0 17.0 0.00 0.03 0.00 44 1005.6
20200409173017 50 300 7.0 15.0 0.00 0.03 0.00 52 1005.5
20200409172543 49 299 8.0 14.0 0.00 0.03 0.00 47 1005.5
20200409172014 48 307 7.0 14.0 0.00 0.03 0.00 46 1005.5
20200409171552 48 318 6.0 13.0 0.00 0.03 0.00 49 1005.8
20200409171028 48 290 8.0 16.0 0.00 0.03 0.00 48 1005.7
20200409170520 48 286 6.0 16.0 0.00 0.03 0.00 48 1005.8
20200409170030 48 317 8.0 16.0 0.00 0.03 0.00 51 1005.8
20200409165520 48 275 7.0 16.0 0.00 0.03 0.00 50 1005.9
20200409165012 47 298 8.0 16.0 0.00 0.03 0.00 48 1005.8
20200409164549 48 327 8.0 17.0 0.00 0.03 0.00 49 1006.0
20200409164020 49 317 9.0 18.0 0.00 0.03 0.00 48 1005.8
20200409163531 48 308 10.0 18.0 0.00 0.03 0.00 49 1005.8
20200409163008 48 254 9.0 19.0 0.00 0.03 0.00 51 1005.6
20200409162505 48 286 8.0 19.0 0.00 0.03 0.00 56 1005.6
20200409162023 47 273 7.0 14.0 0.00 0.03 0.00 51 1005.7
20200409161515 47 28 7.0 13.0 0.00 0.03 0.00 53 1005.8
20200409161008 47 302 7.0 13.0 0.00 0.03 0.00 54 1005.8
20200409160508 47 309 6.0 17.0 0.00 0.03 0.00 56 1006.0
20200409160008 47 279 8.0 17.0 0.00 0.03 0.00 55 1006.1
20200409155526 48 327 9.0 17.0 0.00 0.03 0.00 53 1006.3
20200409155015 48 316 9.0 17.0 0.00 0.03 0.00 50 1006.2
20200409154506 48 303 6.0 16.0 0.00 0.03 0.00 59 1006.2
20200409154017 47 339 9.0 16.0 0.00 0.03 0.00 56 1006.3
20200409153506 47 269 8.0 18.0 0.00 0.03 0.00 57 1006.4
20200409153010 47 310 6.0 18.0 0.00 0.03 0.00 59 1006.3
20200409152526 47 266 9.0 20.0 0.00 0.03 0.00 58 1006.4
20200409152022 47 249 7.0 16.0 0.00 0.03 0.00 58 1006.3
20200409151510 47 302 6.0 17.0 0.00 0.03 0.00 56 1006.5
20200409151030 47 289 10.0 17.0 0.00 0.03 0.00 56 1006.4
20200409150521 47 291 6.0 18.0 0.00 0.03 0.00 57 1006.5
20200409150009 47 304 8.0 18.0 0.00 0.03 0.00 58 1006.4
20200409145523 47 286 7.0 16.0 0.00 0.03 0.00 59 1006.4
20200409145021 47 297 7.0 12.0 0.00 0.03 0.00 56 1006.3
20200409144529 47 305 7.0 12.0 0.00 0.03 0.00 59 1006.2
20200409144021 47 291 7.0 12.0 0.00 0.03 0.00 56 1006.4
20200409143538 47 299 7.0 14.0 0.00 0.03 0.00 56 1006.3
20200409143048 46 294 7.0 14.0 0.00 0.03 0.00 55 1006.3
20200409142529 47 314 8.0 11.0 0.00 0.03 0.00 58 1006.3
20200409142021 47 265 7.0 14.0 0.00 0.03 0.00 59 1006.3
20200409141541 46 294 8.0 14.0 0.00 0.03 0.00 59 1006.3
20200409141010 46 289 5.0 13.0 0.00 0.03 0.00 60 1006.3
20200409140507 46 283 9.0 14.0 0.00 0.03 0.00 59 1006.3
20200409140006 46 318 7.0 13.0 0.00 0.03 0.00 58 1006.2
20200409135522 46 300 6.0 14.0 0.00 0.03 0.00 58 1006.3
20200409135013 46 360 8.0 14.0 0.00 0.03 0.00 60 1006.4
20200409134552 45 313 5.0 14.0 0.00 0.03 0.00 60 1006.3
20200409134511 45 313 5.0 14.0 0.00 0.03 0.00 60 1006.3
20200409134028 45 312 8.0 17.0 0.00 0.03 0.00 58 1006.4
20200409133519 45 325 6.0 17.0 0.00 0.03 0.00 59 1006.4
20200409133010 45 305 7.0 20.0 0.00 0.03 0.00 62 1006.4
20200409132527 45 334 9.0 20.0 0.00 0.03 0.00 61 1006.5
20200409132044 45 269 8.0 13.0 0.00 0.03 0.00 61 1006.5
20200409131535 46 347 7.0 13.0 0.00 0.03 0.00 65 1006.5
20200409131032 45 345 5.0 15.0 0.00 0.03 0.00 64 1006.4
20200409130509 45 323 4.0 15.0 0.00 0.03 0.00 63 1006.5
20200409130008 45 304 6.0 11.0 0.00 0.03 0.00 67 1006.6
20200409125541 44 248 4.0 12.0 0.00 0.03 0.00 69 1006.5
20200409125029 44 17 4.0 12.0 0.00 0.03 0.00 71 1006.6
20200409124542 44 340 6.0 13.0 0.00 0.03 0.00 68 1006.5
20200409124012 44 296 7.0 10.0 0.00 0.03 0.00 68 1006.5
20200409123550 44 321 5.0 8.0 0.00 0.03 0.00 71 1006.3
20200409123042 44 300 5.0 10.0 0.00 0.03 0.00 71 1006.3
20200409122510 44 306 3.0 11.0 0.00 0.03 0.00 71 1006.1
20200409122049 43 347 6.0 13.0 0.00 0.03 0.00 71 1006.1
20200409121518 43 281 4.0 12.0 0.00 0.03 0.00 70 1006.0
20200409121010 43 360 6.0 15.0 0.00 0.03 0.00 69 1006.0
20200409120528 43 284 10.0 16.0 0.00 0.03 0.00 68 1005.8
20200409120026 43 325 6.0 16.0 0.00 0.03 0.00 68 1005.8
20200409115543 43 315 7.0 19.0 0.00 0.03 0.00 68 1005.8
20200409115035 43 277 8.0 19.0 0.00 0.03 0.00 66 1005.7
20200409114526 43 17 5.0 15.0 0.00 0.03 0.00 66 1005.5
20200409114021 43 344 7.0 15.0 0.00 0.03 0.00 66 1005.4
20200409113530 43 336 7.0 20.0 0.00 0.03 0.00 66 1005.4
20200409113024 43 336 8.0 20.0 0.00 0.03 0.00 65 1005.1
20200409112506 43 265 7.0 17.0 0.00 0.03 0.00 65 1005.1
20200409112021 43 267 7.0 17.0 0.00 0.03 0.00 65 1005.0
20200409111508 43 290 3.0 13.0 0.00 0.03 0.00 68 1004.9
20200409111044 43 282 5.0 16.0 0.00 0.03 0.00 68 1004.8
20200409110512 43 40 6.0 16.0 0.00 0.03 0.00 66 1004.7
20200409110028 44 338 6.0 13.0 0.00 0.03 0.00 66 1004.7
20200409105522 44 302 8.0 13.0 0.00 0.03 0.00 67 1004.5
20200409105029 44 360 9.0 15.0 0.00 0.03 0.00 66 1004.5
20200409104523 44 300 5.0 14.0 0.00 0.03 0.00 67 1004.4
20200409104009 44 319 5.0 15.0 0.00 0.03 0.00 68 1004.3
20200409103544 45 295 7.0 15.0 0.00 0.03 0.00 67 1004.2
20200409103032 45 306 8.0 15.0 0.00 0.03 0.00 68 1004.1
20200409102504 45 327 7.0 15.0 0.00 0.03 0.00 67 1004.1
20200409102015 45 290 8.0 17.0 0.00 0.03 0.00 68 1003.9
20200409101531 45 297 7.0 20.0 0.00 0.03 0.00 69 1004.0
20200409101026 46 276 7.0 20.0 0.00 0.03 0.00 71 1004.0
20200409100515 46 316 7.0 18.0 0.00 0.03 0.00 73 1003.9
20200409100050 46 309 7.0 13.0 0.00 0.03 0.00 75 1003.8
20200409095520 46 293 7.0 18.0 0.00 0.03 0.00 77 1003.5
20200409095029 46 311 8.0 18.0 0.00 0.03 0.00 78 1003.5
20200409094519 46 304 6.0 16.0 0.00 0.03 0.00 78 1003.5
20200409094011 46 312 9.0 16.0 0.00 0.03 0.00 78 1003.4
20200409093528 46 296 6.0 15.0 0.00 0.03 0.00 80 1003.3
20200409093021 46 305 5.0 15.0 0.00 0.03 0.00 80 1003.0
20200409092529 47 326 4.0 13.0 0.00 0.03 0.00 82 1003.2
20200409091008 46 242 7.0 14.0 0.00 0.03 0.00 82 1003.1
20200409090528 47 311 6.0 17.0 0.00 0.03 0.00 83 1003.0
20200409090012 47 284 10.0 17.0 0.00 0.03 0.00 83 1002.9
20200409085508 47 309 7.0 14.0 0.00 0.03 0.00 84 1002.9
20200409085006 47 257 8.0 14.0 0.00 0.03 0.00 84 1002.9
20200409084523 47 311 4.0 11.0 0.00 0.03 0.00 85 1002.9
20200409084035 47 318 4.0 9.0 0.00 0.03 0.00 85 1002.8
20200409083532 47 304 5.0 11.0 0.00 0.03 0.00 86 1002.8
20200409083010 47 261 3.0 9.0 0.00 0.03 0.00 86 1002.9
20200409082521 47 348 5.0 12.0 0.00 0.03 0.00 86 1002.9
20200409082010 47 333 7.0 12.0 0.00 0.03 0.00 86 1002.9
20200409081528 47 312 6.0 11.0 0.00 0.03 0.00 86 1002.7
20200409081020 47 294 7.0 12.0 0.00 0.03 0.00 86 1002.9